Lancaster, PA

3:55 PM EST on January 22, 2018 (GMT -0500)
Lancaster

Weather History for KLNS - April, 2014

Change the Weather History Date:

Saturday, April 26, 2014

  Actual Average Record
Temperature  
Mean Temperature 58 °F -  
Max Temperature 72 °F 68 °F 91 °F (1990)
Min Temperature 45 °F 41 °F 32 °F (1987)
Degree Days  
Heating Degree Days 7    
Growing Degree Days 8 (Base 50)    
Moisture  
Dew Point 39 °F    
Average Humidity 59    
Maximum Humidity 93    
Minimum Humidity 24    
Precipitation  
Precipitation 0.02 in - - ()
Sea Level Pressure  
Sea Level Pressure 29.78 in    
Wind  
Wind Speed 9 mph (NW)    
Max Wind Speed 22 mph    
Max Gust Speed 34 mph    
Visibility 9 miles    
Events Rain    
Averages and records for this station are not official NWS values.
T = Trace of Precipitation, MM = Missing Value Source: NWS Daily Summary

Daily Weather History Graph

Daily Weather History Graph

Search for Another Location

Airport or City:

Trip Planner

Search our weather history database for the weather conditions in past years. The results will help you decide how hot, cold, wet, or windy it might be!

Date:

Astronomy

Apr. 26, 2014 Rise Set
Actual Time 6:11 AM EDT 7:55 PM EDT
Civil Twilight 5:42 AM EDT 8:24 PM EDT
Nautical Twilight 5:07 AM EDT 8:59 PM EDT
Astronomical Twilight 4:30 AM EDT 9:36 PM EDT
Moon 4:34 AM EDT (4/26) 5:20 PM EDT (4/26)
Length of Visible Light 14h 41m
Length of Day
13h 43m
Waning Crescent, 8% of the Moon is Illuminated
Apr 26
Waning Crescent
Apr 29
New
May 6
First Quarter
May 14
Full
May 21
Last Quarter

Hourly Weather History & Observations

Time (EDT) Temp. Windchill Dew Point Humidity Pressure Visibility Wind Dir Wind Speed Gust Speed Precip Events Conditions
12:35 AM 46.9 °F - 43.0 °F 86% 29.74 in 10.0 mi North 3.5 mph - N/A   Overcast
12:53 AM 46.9 °F - 43.0 °F 86% 29.75 in 10.0 mi NNW 3.5 mph - 0.00 in Rain Light Rain
1:53 AM 46.0 °F 43.9 °F 43.0 °F 89% 29.73 in 8.0 mi NNW 4.6 mph - 0.01 in   Overcast
2:53 AM 46.0 °F 43.1 °F 43.0 °F 89% 29.73 in 6.0 mi NW 5.8 mph - 0.01 in   Overcast
3:05 AM 46.0 °F 41.9 °F 44.1 °F 93% 29.74 in 6.0 mi NW 8.1 mph - N/A   Overcast
3:53 AM 48.0 °F - 44.1 °F 86% 29.74 in 7.0 mi WNW 12.7 mph - N/A   Overcast
4:15 AM 46.9 °F - 44.1 °F 90% 29.75 in 7.0 mi West 10.4 mph - N/A   Overcast
4:53 AM 48.0 °F - 42.1 °F 80% 29.76 in 9.0 mi NW 15.0 mph - N/A   Mostly Cloudy
5:53 AM 46.0 °F 41.0 °F 39.9 °F 79% 29.78 in 9.0 mi NW 10.4 mph - N/A   Clear
6:53 AM 45.0 °F 41.8 °F 39.0 °F 80% 29.81 in 7.0 mi West 5.8 mph - N/A   Clear
7:53 AM 48.9 °F - 39.9 °F 71% 29.82 in 10.0 mi WNW 9.2 mph - N/A   Clear
8:53 AM 53.1 °F - 41.0 °F 64% 29.84 in 10.0 mi NW 12.7 mph - N/A   Clear
9:53 AM 55.9 °F - 42.1 °F 60% 29.84 in 10.0 mi NW 13.8 mph - N/A   Clear
10:53 AM 59.0 °F - 43.0 °F 55% 29.82 in 10.0 mi West 10.4 mph - N/A   Clear
11:53 AM 62.1 °F - 41.0 °F 46% 29.79 in 10.0 mi Variable 4.6 mph - N/A   Clear
12:53 PM 64.9 °F - 43.0 °F 45% 29.77 in 10.0 mi West 8.1 mph - N/A   Partly Cloudy
2:53 PM 71.1 °F - 46.0 °F 41% 29.72 in 10.0 mi West 12.7 mph - N/A   Mostly Cloudy
3:53 PM 71.1 °F - 43.0 °F 36% 29.69 in 10.0 mi WNW 18.4 mph - N/A   Partly Cloudy
4:53 PM 69.1 °F - 39.9 °F 35% 29.69 in 10.0 mi WSW 10.4 mph - N/A   Mostly Cloudy
5:53 PM 70.0 °F - 37.0 °F 30% 29.69 in 10.0 mi West 20.7 mph 28.8 mph N/A   Scattered Clouds
6:53 PM 69.1 °F - 33.1 °F 26% 29.72 in 10.0 mi NW 20.7 mph 34.5 mph N/A   Scattered Clouds
7:53 PM 66.0 °F - 28.0 °F 24% 29.75 in 10.0 mi WNW 18.4 mph 28.8 mph N/A   Clear
8:53 PM 61.0 °F - 27.0 °F 27% 29.81 in 10.0 mi NW 21.9 mph 26.5 mph N/A   Clear
9:53 PM 57.0 °F - 28.0 °F 33% 29.87 in 10.0 mi NNW 12.7 mph - N/A   Clear
10:53 PM 54.0 °F - 28.0 °F 37% 29.90 in 10.0 mi NNW 15.0 mph - N/A   Clear
11:53 PM 50.0 °F - 30.0 °F 46% 29.92 in 10.0 mi North 11.5 mph - N/A   Clear